Regional Weather Roundup
Issued by NWS Sterling, VA

Home | Current Version | Previous Version | Graphics & Text | Print | Product List | Glossary On
Versions: 1 2 3 4 5 6 7 8 9 10 11 12 13 14 15 16 17 18 19 20 21 22 23 24 25 26 27 28 29 30 31 32 33 34 35 36 37 38 39 40 41 42 43 44 45 46 47 48 49 50
000
ASUS41 KLWX 021611
RWRLWX

REGIONAL WEATHER ROUNDUP
NATIONAL WEATHER SERVICE BALTIMORE MD/WASHINGTON DC
1200 PM EDT TUE JUN 02 2015

Note: "FAIR" indicates few or no clouds below 12,000 feet
with no significant weather and/or obstructions to visibility.
 TC=TEMPERATURE CELSIUS

 * =Non NWS site. Station does not report precipitation (e.g. rain,
    snow, etc.), thunder, or fog.

DCZ001-MDZ009-015-VAZ040>042-051-053>054-021700-
WASHINGTON METRO

CITY           SKY/WX    TMP DP  RH WIND       PRES   REMARKS
WASHINGTON NAT CLOUDY    63  57  82 N14       30.09S
DULLES         LGT RAIN  60  57  89 N10       30.10R
ANDREWS AFB    CLOUDY    60  60  99 N12       30.08R FOG
FT BELVOIR     DRIZZLE   61  59  93 VRB5      30.09R FOG
QUANTICO       LGT RAIN  63  60  90 NE13      30.09R FOG
COLLEGE PARK*  CLOUDY    59  59 100 NE6       30.10R
LEESBURG*      CLOUDY    59  59 100 N9        30.12R FOG
GAITHERSBURG*  CLOUDY    59  55  88 NE3       30.14S

$$

MDZ006>007-011-014-021700-
BALTIMORE METRO

CITY           SKY/WX    TMP DP  RH WIND       PRES   REMARKS
BWI AIRPORT    DRIZZLE   57  55  94 NE7       30.10S FOG
MD SCIENCE CTR   N/A     58  55  90 MISG      30.11R
MARTIN STATE   DRIZZLE   57  57 100 CALM      30.12S
ANNAPOLIS      CLOUDY    59  57  93 NE10      30.09S FOG
FORT MEADE*    CLOUDY    57  54  88 N6        30.13S

$$

MDZ012-015-019>023-021700-
MARYLAND EASTERN SHORE

CITY           SKY/WX    TMP DP  RH WIND       PRES   REMARKS
OCEAN CITY     CLOUDY    61  59  93 NE14      30.07R FOG
SALISBURY      CLOUDY    63  59  87 NE16      30.07R
BAY BRIDGE AP*   N/A    N/A N/A N/A N7        30.10R FOG
EASTON*        CLOUDY    61  61 100 NE12      30.11S

$$

MDZ017>025-021700-
SOUTHERN MARYLAND

CITY           SKY/WX    TMP DP  RH WIND       PRES   REMARKS
PATUXENT RIVER LGT RAIN  67  64  90 N14       30.05R
ST INIGOES       N/A     71  67  87 VRB6      30.03R
LEONARDTOWN*   CLOUDY    64  61  88 N7        30.07R

$$

MDZ003>005-021700-
NORTH CENTRAL MARYLAND

CITY           SKY/WX    TMP DP  RH WIND       PRES   REMARKS
FREDERICK*     DRIZZLE   57  57 100 N9        30.14S
HAGERSTOWN APT LGT RAIN  58  55  90 N9        30.13R FOG
WESTMINSTER*   LGT RAIN  55  54  94 NE7       30.12S

$$

MDZ501>502-021700-
WESTERN MARYLAND

CITY           SKY/WX    TMP DP  RH WIND       PRES   REMARKS
OAKLAND*       FOG       54 N/A N/A CALM      30.14S VSB 1/2
CUMBERLAND*    CLOUDY    61  59  94 CALM      30.17R

$$

VAZ025>031-021700-
SHENANDOAH VALLEY

CITY           SKY/WX    TMP DP  RH WIND       PRES   REMARKS
WINCHESTER*    CLOUDY    61  61 100 N6        30.11S
FRONT ROYAL*   CLOUDY    61  59  94 N7        30.10S
LURAY*         LGT RAIN  63  63 100 NE7       30.10S
NEW MARKET*    CLOUDY    64  60  88 NE10      30.08S
STAUNTON*      DRIZZLE   65  63  92 NE8       30.10S
WAYNESBORO*    CLOUDY    62  62  99 N5        30.09R

$$

WVZ021-048>050-054>055-021700-
EASTERN WEST VIRGINIA PANHANDLE

CITY           SKY/WX    TMP DP  RH WIND       PRES   REMARKS
MARTINSBURG    LGT RAIN  58  55  90 N10       30.13R FOG
PETERSBURG*    CLOUDY    61  57  87 CALM      30.13R

$$

VAZ036>039-050-021700-
CENTRAL FOOTHILLS

CITY           SKY/WX    TMP DP  RH WIND       PRES   REMARKS
CHARLOTTESVILL LGT RAIN  65  63  93 NE10      30.06S FOG
CULPEPER*      CLOUDY    63  60  90 N7        30.09S
ORANGE*        CLOUDY    64  63  94 N8        30.09R
GORDONSVILLE*  CLOUDY    64  63  94 NE8       30.06S
WARRENTON*     CLOUDY    63  62  96 N10       30.09R

$$

VAZ055>057-021700-
NORTH AND CENTRAL PIEDMONT

CITY           SKY/WX    TMP DP  RH WIND       PRES   REMARKS
FREDERICKSBRG* CLOUDY    67  67 100 N6        30.06R FOG
STAFFORD*      DRIZZLE   64  62  94 NE7       30.10S

$$

NCZ024-NYZ072-PAZ021-071-VAZ022-071-021700-
OTHER REGIONAL OBSERVATIONS

CITY           SKY/WX    TMP DP  RH WIND       PRES   REMARKS
NEW YORK CITY  CLOUDY    53  49  86 VRB5      30.17S
PHILADELPHIA   CLOUDY    55  51  86 NE13      30.13R
PITTSBURGH     CLOUDY    59  51  75 N7        30.15R
ROANOKE        CLOUDY    74  63  68 N5        30.07S
RICHMOND       CLOUDY    78  69  73 CALM      30.03R
RALEIGH        LGT RAIN  71  68  90 CALM      30.06S

$$

ANZ530>537-021700-
MARINE OBSERVATIONS

STATION/POSITION TIME  TEMP    WIND        PRES
                       AIR SEA DIR/SP/G
                 (UTC) (F)     (DEG/KT/KT) (MB)
THOMAS PT LIGHT  1600   58 73   30/ 14/ 16 1019.3R
BALT KEY BRIDGE  1500   57     360/ 11/ 13 1019.1R
COVE POINT       1500   65      30/ 13/ 17 1018.1R
LEWISETTA        1500   74 74              1016.5R
SOLOMONS ISLAND  1500      73                N/A
PINEY POINT      1500          340/  5/  5   N/A

$$



USA.gov is the U.S. government's official web portal to all federal, state and local government web resources and services.